Vertical_Velocity
14 1 0 -3 -3 5 5 3 7 12 6 -4 -0 4 4 2 10 -1 7 5 4 -2
-1 4 1 18 3 15 7 6 6 5 5 5 0 2 7 3 1 5 4 -2 7 3
-7 -3 -7 -3 3 1 -4 1 13 -0 7 4 6 3 -1 8 2 10 -2 2 10 7
-5 3 0 3 3 3 -1 3 1 6 8 4 1 2 4 6 -3 9 1 7 5 -3
-17 0 -3 9 -4 -4 -3 6 -8 5 2 1 3 1 -1 1 0 -0 2 4 6 -2
1 -4 -3 -6 -0 -3 3 -1 7 5 -2 7 2 0 1 -0 3 1 4 2 3 -4
-6 0 -1 -3 -7 6 3 -2 0 1 1 -3 1 6 5 3 1 1 3 8 7 -2
2 -3 -1 -5 2 -1 1 2 1 3 2 -3 -1 1 4 4 3 3 3 4 9 2
6 -3 3 -1 6 -2 -3 -1 4 -2 -0 -0 -1 3 8 3 3 7 7 -1 7 4
-1 -3 -1 -3 3 -2 3 2 1 5 1 3 9 3 -3 -2 4 5 3 -4 6 7
-3 -2 -4 -0 4 1 -3 -2 -4 0 0 1 -2 6 4 2 4 5 2 12 5 4
-1 -1 -4 0 -6 1 -0 3 3 2 -2 -3 -3 2 1 -5 2 -1 -0 5 -3 2
1 -3 -4 1 -4 8 7 3 7 6 2 1 -1 -2 -1 -2 1 3 0 -1 4 4
-2 -3 -1 5 1 -2 -1 11 7 0 1 3 4 9 1 -2 1 -1 1 4 -3 5
Height
1437 1424 1421 1418 1417 1418 1420 1428 1434 1440 1444 1447 1451 1456 1462 1465 1469 1473 1476 1483 1488 1490
1428 1422 1418 1413 1416 1415 1417 1418 1427 1432 1437 1441 1446 1451 1456 1462 1465 1470 1476 1481 1486 1490
1428 1422 1421 1413 1409 1407 1411 1414 1416 1423 1430 1435 1440 1446 1451 1456 1459 1466 1473 1478 1481 1487
1425 1422 1414 1413 1404 1405 1405 1408 1411 1417 1424 1428 1434 1441 1446 1450 1457 1461 1468 1473 1478 1485
1426 1422 1416 1408 1406 1404 1405 1405 1408 1411 1414 1422 1428 1434 1441 1445 1450 1456 1461 1466 1473 1480
1426 1419 1415 1408 1407 1405 1403 1397 1402 1403 1408 1415 1421 1427 1434 1440 1444 1450 1454 1462 1468 1475
1431 1424 1415 1411 1408 1405 1399 1397 1397 1397 1401 1407 1415 1421 1427 1434 1439 1445 1450 1455 1462 1469
1434 1425 1422 1415 1408 1398 1395 1395 1393 1394 1397 1401 1408 1414 1421 1426 1432 1438 1444 1450 1458 1465
1433 1427 1418 1415 1404 1399 1396 1395 1391 1390 1391 1395 1403 1408 1412 1419 1425 1431 1436 1443 1451 1459
1430 1422 1419 1415 1405 1400 1397 1393 1389 1389 1390 1394 1396 1401 1406 1412 1419 1426 1431 1438 1444 1452
1432 1427 1423 1417 1408 1402 1396 1393 1389 1385 1384 1386 1392 1395 1401 1406 1412 1419 1427 1433 1441 1448
1436 1431 1425 1420 1412 1405 1398 1394 1390 1386 1385 1385 1389 1392 1396 1399 1407 1413 1421 1427 1435 1444
1438 1433 1429 1424 1417 1408 1400 1398 1393 1388 1388 1387 1388 1391 1397 1402 1406 1410 1415 1421 1431 1439
1437 1436 1432 1426 1418 1411 1407 1401 1395 1393 1395 1392 1393 1396 1399 1402 1404 1407 1412 1418 1424 1433